This is the latest recevied weather packets stored in our database for station/object K7FED. If no packets are shown the sender has not sent any weather packets the latest 10 day(s).
| Time | Temp. | Humidity | Pressure | Rain* | Wind** | Luminosity | Snow |
|---|---|---|---|---|---|---|---|
| 1777670223 | 26.67° C | 37% | 1011 hPa | 0 mm | - | 698 W/m² | - |
| 1777669923 | 26.67° C | 39% | 1011 hPa | 0 mm | - | 717 W/m² | - |
| 1777669620 | 26.67° C | 38% | 1011 hPa | 0 mm | - | 729 W/m² | - |
| 1777669320 | 26.67° C | 38% | 1011 hPa | 0 mm | - | 717 W/m² | - |
| 1777669017 | 26.67° C | 38% | 1011 hPa | 0 mm | - | 644 W/m² | - |
| 1777668717 | 27.22° C | 37% | 1011 hPa | 0 mm | - | 676 W/m² | - |
| 1777668416 | 27.22° C | 38% | 1011 hPa | 0 mm | - | 659 W/m² | - |
| 1777668117 | 27.22° C | 38% | 1011.1 hPa | 0 mm | - | 703 W/m² | - |
| 1777667816 | 26.67° C | 38% | 1011.1 hPa | 0 mm | - | 764 W/m² | - |
| 1777667514 | 26.67° C | 37% | 1011.1 hPa | 0 mm | - | 761 W/m² | - |
| 1777667215 | 26.67° C | 37% | 1011.2 hPa | 0 mm | - | 717 W/m² | - |
| 1777666915 | 27.22° C | 38% | 1011.3 hPa | 0 mm | - | 716 W/m² | - |
| 1777666614 | 27.22° C | 38% | 1011.4 hPa | 0 mm | - | 825 W/m² | - |
| 1777666314 | 26.67° C | 38% | 1011.3 hPa | 0 mm | - | 823 W/m² | - |
| 1777666014 | 26.67° C | 39% | 1011.3 hPa | 0 mm | - | 575 W/m² | - |
| 1777665714 | 26.11° C | 38% | 1011.3 hPa | 0 mm | - | 279 W/m² | - |
| 1777665415 | 26.11° C | 40% | 1011.4 hPa | 0 mm | - | 749 W/m² | - |
| 1777665115 | 26.11° C | 39% | 1011.4 hPa | 0 mm | - | 825 W/m² | - |
| 1777664815 | 26.11° C | 39% | 1011.5 hPa | 0 mm | - | 687 W/m² | - |
| 1777664515 | 26.11° C | 40% | 1011.6 hPa | 0 mm | - | 208 W/m² | - |
| 1777664215 | 26.11° C | 40% | 1011.6 hPa | 0 mm | - | 281 W/m² | - |
| 1777663912 | 25.56° C | 41% | 1011.7 hPa | 0 mm | - | 698 W/m² | - |
| 1777663609 | 25.56° C | 41% | 1011.7 hPa | 0 mm | - | 710 W/m² | - |
| 1777663309 | 25.56° C | 42% | 1011.8 hPa | 0 mm | - | 600 W/m² | - |
| 1777663009 | 25° C | 44% | 1012 hPa | 0 mm | - | 540 W/m² | - |
* Rain latest hour (hover to see other rain measurements)
** Current wind speed in m/s (hover to see current wind gust speed)